Glendale Luke AFB, AZ

1:21 AM MST on December 08, 2019 (GMT -0700)
Luke Air Force Base

Weather History for KLUF - October, 2019

Change the Weather History Date:

Thursday, October 24, 2019

  Actual Average Record
Temperature  
Mean Temperature 72 °F -  
Max Temperature 84 °F 86 °F 100 °F (1959)
Min Temperature 60 °F 50 °F 35 °F (1975)
Cooling Degree Days 7    
Growing Degree Days 22 (Base 50)    
Moisture  
Dew Point 15 °F    
Average Humidity 13    
Maximum Humidity 36    
Minimum Humidity 6    
Precipitation  
Precipitation 0.00 in - - ()
Sea Level Pressure  
Sea Level Pressure 29.97 in    
Wind  
Wind Speed 14 mph (NNE)    
Max Wind Speed 24 mph    
Max Gust Speed 32 mph    
Visibility 10 miles    
Events      
Averages and records for this station are not official NWS values.
T = Trace of Precipitation, MM = Missing Value Source: NWS Daily Summary

Daily Weather History Graph

Daily Weather History Graph

Search for Another Location

Airport or City:

Astronomy

Oct. 24, 2019 Rise Set
Actual Time 6:41 AM MST 5:45 PM MST
Civil Twilight 6:15 AM MST 6:10 PM MST
Nautical Twilight 5:46 AM MST 6:40 PM MST
Astronomical Twilight 5:17 AM MST 7:08 PM MST
Moon 2:33 AM MST (10/24) 4:00 PM MST (10/24)
Length of Visible Light 11h 54m
Length of Day
11h 04m
Waning Crescent, 16% of the Moon is Illuminated
Oct 24
Waning Crescent
Oct 27
New
Nov 4
First Quarter
Nov 12
Full
Nov 19
Last Quarter

Hourly Weather History & Observations

Time (MST) Temp. Dew Point Humidity Pressure Visibility Wind Dir Wind Speed Gust Speed Precip Events Conditions
12:58 AM 63.9 °F 33.4 °F 32% 29.83 in 10.0 mi NNW 9.2 mph - N/A   Clear
1:58 AM 64.2 °F 31.3 °F 29% 29.83 in 10.0 mi NNW 10.4 mph - N/A   Clear
2:58 AM 60.3 °F 33.3 °F 36% 29.85 in 10.0 mi NNW 11.5 mph - N/A   Clear
3:58 AM 62.1 °F 27.7 °F 27% 29.84 in 10.0 mi NNW 11.5 mph - N/A   Clear
4:58 AM 61.3 °F 27.9 °F 28% 29.88 in 10.0 mi NNW 11.5 mph - N/A   Clear
5:58 AM 70.0 °F 16.9 °F 13% 29.90 in 10.0 mi NNW 10.4 mph - N/A   Clear
6:58 AM 71.2 °F 16.0 °F 12% 29.92 in 9.0 mi NNE 19.6 mph - N/A   Clear
7:58 AM 72.3 °F 18.7 °F 13% 29.96 in 10.0 mi NNE 19.6 mph - N/A   Clear
8:58 AM 75.0 °F 14.7 °F 10% 30.00 in 10.0 mi NNE 21.9 mph 28.8 mph N/A   Clear
9:58 AM 77.4 °F 16.5 °F 10% 30.01 in 10.0 mi NNE 17.3 mph - N/A   Clear
10:58 AM 80.2 °F 16.3 °F 9% 30.01 in 10.0 mi NNE 16.1 mph - N/A   Clear
11:38 AM 82.4 °F 14.0 °F 8% 30.00 in 10.0 mi NE 24.2 mph - N/A   Clear
11:58 AM 82.4 °F 15.1 °F 8% 30.01 in 7.0 mi NE 23.0 mph - N/A   Clear
12:58 PM 83.8 °F 13.1 °F 7% 29.98 in 9.0 mi NNE 19.6 mph 32.2 mph N/A   Clear
1:58 PM 84.0 °F 13.3 °F 7% 29.96 in 10.0 mi NNE 16.1 mph - N/A   Clear
2:58 PM 84.2 °F 10.0 °F 6% 29.97 in 10.0 mi North 19.6 mph - N/A   Clear
3:58 PM 83.1 °F 9.1 °F 6% 29.97 in 10.0 mi NNE 20.7 mph - N/A   Clear
4:58 PM 80.4 °F 10.6 °F 7% 29.97 in 10.0 mi NE 13.8 mph - N/A   Clear
5:58 PM 76.3 °F 7.7 °F 7% 29.98 in 10.0 mi NE 11.5 mph - N/A   Clear
6:58 PM 73.2 °F 8.4 °F 8% 30.01 in 10.0 mi NNE 11.5 mph - N/A   Clear
7:58 PM 70.9 °F 6.6 °F 8% 30.03 in 10.0 mi North 8.1 mph - N/A   Clear
8:58 PM 71.8 °F 1.0 °F 6% 30.04 in 10.0 mi NNE 20.7 mph - N/A   Clear
9:58 PM 70.3 °F 3.2 °F 7% 30.06 in 10.0 mi NNE 10.4 mph - N/A   Clear
10:58 PM 70.0 °F 3.0 °F 7% 30.07 in 10.0 mi NNE 16.1 mph - N/A   Clear
11:58 PM 68.7 °F 2.1 °F 7% 30.06 in 10.0 mi North 20.7 mph - N/A   Clear